Weather History for 94578 - July, 2013

Change the Weather History Date:

Sunday, July 28, 2013

  Actual Average Record
Temperature  
Mean Temperature 60 °F -  
Max Temperature 69 °F 71 °F - ()
Min Temperature 50 °F 50 °F - ()
Degree Days  
Heating Degree Days 6    
Growing Degree Days 10 (Base 50)    
Moisture  
Dew Point 53 °F    
Average Humidity 73    
Maximum Humidity 94    
Minimum Humidity 41    
Precipitation  
Precipitation 0.03 in 0.06 in - ()
Sea Level Pressure  
Sea Level Pressure 30.33 in    
Wind  
Wind Speed 7 mph ()    
Max Wind Speed 13 mph    
Max Gust Speed -    
Visibility 8.5 miles    
Events Rain    
T = Trace of Precipitation, MM = Missing Value Source: Averaged Metar Reports

Daily Weather History Graph

Daily Weather History Graph

Search for Another Location

Airport or City:

Trip Planner

Search our weather history database for the weather conditions in past years. The results will help you decide how hot, cold, wet, or windy it might be!

Date:

Astronomy

Jul. 28, 2013 Rise Set
Actual Time 6:31 AM AEST 5:17 PM AEST
Civil Twilight 6:06 AM AEST 5:41 PM AEST
Nautical Twilight 5:38 AM AEST 6:10 PM AEST
Astronomical Twilight 5:10 AM AEST 6:37 PM AEST
Moon 11:01 PM AEST (7/28) 9:57 AM AEST (7/28)
Length of Visible Light 11h 35m
Length of Day
10h 45m
Waning Gibbous, 67% of the Moon is Illuminated
Jul 28
Waning Gibbous
Jul 30
Last Quarter
Aug 7
New
Aug 14
First Quarter
Aug 21
Full

Hourly Weather History & Observations

Time (AEST) Temp. Dew Point Humidity Pressure Visibility Wind Dir Wind Speed Gust Speed Precip Events Conditions
12:00 AM 55 °F 52 °F 84% 30.36 in 19 mi SSW 5.8 mph - -   Partly Cloudy
12:00 AM 55.4 °F 51.8 °F 88% 30.36 in - SSW 5.8 mph - N/A   Clear
12:30 AM 53.6 °F 51.8 °F 94% 30.33 in - South 6.9 mph - N/A   Clear
1:00 AM 56 °F 52 °F 80% 30.35 in - South 6.9 mph - -  
1:00 AM 55.4 °F 51.8 °F 88% 30.33 in - South 6.9 mph - N/A   Clear
1:30 AM 53.6 °F 51.8 °F 94% 30.33 in - SSW 6.9 mph - N/A   Clear
2:00 AM 57.2 °F 51.8 °F 82% 30.33 in 6.2 mi South 4.6 mph - N/A   Scattered Clouds
2:30 AM 53.6 °F 51.8 °F 94% 30.33 in - SSW 6.9 mph - N/A   Clear
3:00 AM 53 °F 50 °F 87% 30.34 in 12 mi SSW 6.9 mph - -   Partly Cloudy
3:00 AM 53.6 °F 50.0 °F 88% 30.33 in - SSW 6.9 mph - N/A   Clear
3:30 AM 51.8 °F 50.0 °F 94% 30.33 in - SSW 8.1 mph - N/A   Clear
4:00 AM 52 °F 49 °F 86% 30.33 in - SSW 9.2 mph - -  
4:00 AM 51.8 °F 50.0 °F 94% 30.33 in - SSW 9.2 mph - N/A   Clear
4:30 AM 51.8 °F 48.2 °F 88% 30.30 in - SSW 9.2 mph - N/A   Clear
5:00 AM 53.6 °F 50.0 °F 88% 30.33 in - SSW 10.4 mph - N/A   Clear
5:30 AM 53.6 °F 50.0 °F 88% 30.33 in - SSW 9.2 mph - N/A   Clear
6:00 AM 54 °F 50 °F 82% 30.35 in 19 mi South 6.9 mph - -   Partly Cloudy
6:00 AM 53.6 °F 50.0 °F 88% 30.33 in 6.2 mi South 6.9 mph - N/A   Scattered Clouds
6:30 AM 57.2 °F 53.6 °F 88% 30.36 in 6.2 mi South 6.9 mph - N/A Rain Light Rain Showers
7:00 AM 57 °F 52 °F 79% 30.36 in - South 5.8 mph - -  
7:00 AM 57.2 °F 51.8 °F 82% 30.36 in 6.2 mi South 5.8 mph - N/A   Scattered Clouds
7:30 AM 57.2 °F 53.6 °F 88% 30.36 in 6.2 mi South 6.9 mph - N/A Rain Rain Showers
8:00 AM 60.8 °F 55.4 °F 82% 30.36 in 6.2 mi SSE 5.8 mph - N/A   Scattered Clouds
8:30 AM 62.6 °F 55.4 °F 77% 30.36 in 6.2 mi South 5.8 mph - N/A   Partly Cloudy
9:00 AM 65 °F 56 °F 64% 30.37 in 19 mi South 8.1 mph - -   Partly Cloudy
9:00 AM 64.4 °F 55.4 °F 73% 30.36 in 6.2 mi South 8.1 mph - N/A   Partly Cloudy
9:30 AM 66.2 °F 57.2 °F 73% 30.36 in 6.2 mi SSE 6.9 mph - N/A   Partly Cloudy
10:00 AM 68 °F 54 °F 50% 30.38 in - SE 5.8 mph - -  
10:00 AM 68.0 °F 53.6 °F 60% 30.36 in 6.2 mi SE 5.8 mph - N/A   Scattered Clouds
10:30 AM 68.0 °F 57.2 °F 68% 30.36 in 6.2 mi East 5.8 mph - N/A   Scattered Clouds
11:00 AM 68.0 °F 53.6 °F 60% 30.36 in 6.2 mi ENE 10.4 mph - N/A   Scattered Clouds
11:30 AM 66.2 °F 55.4 °F 68% 30.36 in 6.2 mi ENE 10.4 mph - N/A   Mostly Cloudy
12:00 PM 65 °F 57 °F 67% 30.35 in 19 mi East 3.5 mph - - Rain Light Rain Showers
12:00 PM 64.4 °F 57.2 °F 77% 30.33 in 6.2 mi East 3.5 mph - N/A   Mostly Cloudy
12:30 PM 66.2 °F 55.4 °F 68% 30.33 in 6.2 mi ESE 6.9 mph - N/A   Mostly Cloudy
1:00 PM 66 °F 54 °F 55% 30.33 in - East 9.2 mph - -  
1:00 PM 66.2 °F 53.6 °F 64% 30.33 in 6.2 mi East 9.2 mph - N/A   Mostly Cloudy
1:30 PM 68.0 °F 53.6 °F 60% 30.30 in 6.2 mi East 6.9 mph - N/A   Mostly Cloudy
2:00 PM 68.0 °F 55.4 °F 64% 30.30 in 6.2 mi SE 9.2 mph - N/A   Mostly Cloudy
2:30 PM 68.0 °F 53.6 °F 60% 30.30 in 6.2 mi East 12.7 mph - N/A   Mostly Cloudy
3:00 PM 68 °F 50 °F 41% 30.30 in 19 mi East 10.4 mph - -   Partly Cloudy
3:00 PM 68.0 °F 50.0 °F 52% 30.30 in 6.2 mi ENE 10.4 mph - N/A   Partly Cloudy
3:30 PM 69.8 °F 50.0 °F 49% 30.30 in 6.2 mi East 9.2 mph - N/A   Partly Cloudy
4:00 PM 68 °F 50 °F 42% 30.30 in - East 9.2 mph - -  
4:00 PM 68.0 °F 50.0 °F 52% 30.30 in 6.2 mi East 9.2 mph - N/A   Partly Cloudy
4:30 PM 66.2 °F 51.8 °F 60% 30.30 in 6.2 mi East 9.2 mph - N/A   Partly Cloudy
5:00 PM 66.2 °F 51.8 °F 60% 30.30 in 6.2 mi East 6.9 mph - N/A   Partly Cloudy
5:30 PM 64.4 °F 53.6 °F 68% 30.30 in 6.2 mi East 5.8 mph - N/A   Partly Cloudy
6:00 PM 65 °F 53 °F 57% 30.32 in 19 mi ESE 5.8 mph - -   Partly Cloudy
6:00 PM 64.4 °F 53.6 °F 68% 30.30 in 6.2 mi ESE 5.8 mph - N/A   Partly Cloudy
6:30 PM 64.4 °F 53.6 °F 68% 30.30 in 6.2 mi ESE 5.8 mph - N/A   Partly Cloudy
7:00 PM 64 °F 54 °F 60% 30.33 in - ESE 5.8 mph - -  
7:00 PM 64.4 °F 53.6 °F 68% 30.33 in - ESE 5.8 mph - N/A   Clear
7:30 PM 64.4 °F 51.8 °F 64% 30.33 in - SSE 4.6 mph - N/A   Clear
8:00 PM 60.8 °F 51.8 °F 72% 30.33 in - SSE 4.6 mph - N/A   Clear
8:30 PM 59.0 °F 53.6 °F 82% 30.33 in 6.2 mi SSE 3.5 mph - N/A   Scattered Clouds
9:00 PM 61 °F 56 °F 77% 30.34 in 19 mi ESE 5.8 mph - - Rain Light Rain Showers
9:00 PM 60.8 °F 55.4 °F 82% 30.33 in 6.2 mi ESE 5.8 mph - N/A   Mostly Cloudy
9:30 PM 62.6 °F 55.4 °F 77% 30.33 in 6.2 mi ESE 6.9 mph - N/A   Mostly Cloudy
10:00 PM 64 °F 52 °F 55% 30.34 in - East 9.2 mph - -  
10:00 PM 64.4 °F 51.8 °F 64% 30.33 in 6.2 mi East 9.2 mph - N/A   Mostly Cloudy
10:30 PM 64.4 °F 50.0 °F 59% 30.30 in 6.2 mi East 6.9 mph - N/A   Mostly Cloudy
11:00 PM 62.6 °F 53.6 °F 72% 30.30 in - SSE 4.6 mph - N/A   Clear
11:30 PM 60.8 °F 55.4 °F 82% 30.30 in 6.2 mi South 5.8 mph - N/A   Mostly Cloudy